When you browse on this site, cookies collect data to enhance your experience and personalize the content and advertising you see.
Visit our Privacy Policy to learn more. By continuing to use the site, you agree to this use of cookies and data.
  • en Suisse
  • Liste des pays
  • À 7 jours
  • Température de l'eau
  • Carte satellitaire
  • Carte météo
  • Widgets météo
  • user-avatar
    Se connecter

    Météo par heure à Porto Velho

    Ce jour, 24 Janvier, Jeudi

    Heure Température Précipitation Vent Pression Humidité
    00:00 +23°C° 0 mm 0 m/s 751 mmHg 97%
    01:00 +23°C° 0 mm 0 m/s 751 mmHg 97%
    02:00 +23°C° 0 mm 0 m/s 751 mmHg 97%
    03:00 +23°C° 0 mm 0 m/s 751 mmHg 97%
    04:00 +23°C° 0 mm 0 m/s 751 mmHg 98%
    05:00 +22°C° 0 mm 0 m/s 751 mmHg 98%
    06:00 +23°C° 0 mm 0 m/s 752 mmHg 95%
    07:00 +24°C° 0 mm 0 m/s 752 mmHg 92%
    08:00 +25°C° 0 mm 0 m/s 753 mmHg 89%
    09:00 +30°C° 0 mm 1 m/s 753 mmHg 78%
    10:00 +32°C° 0 mm 1 m/s 752 mmHg 66%
    11:00 +34°C° 0 mm 1 m/s 752 mmHg 55%
    12:00 +34°C° 0.9 mm 1 m/s 752 mmHg 61%
    13:00 +34°C° 0.9 mm 1 m/s 751 mmHg 67%
    14:00 +33°C° 0.9 mm 1 m/s 750 mmHg 73%
    15:00 +32°C° 1.8 mm 1 m/s 750 mmHg 77%
    16:00 +30°C° 1.8 mm 0 m/s 749 mmHg 81%
    17:00 +29°C° 1.8 mm 0 m/s 749 mmHg 85%
    18:00 +27°C° 0.3 mm 0 m/s 749 mmHg 88%
    19:00 +26°C° 0.3 mm 0 m/s 750 mmHg 90%
    20:00 +25°C° 0.3 mm 0 m/s 750 mmHg 93%
    21:00 +25°C° 0 mm 0 m/s 751 mmHg 94%
    22:00 +24°C° 0 mm 0 m/s 751 mmHg 96%
    23:00 +26°C° 0 mm 1 m/s 752 mmHg 97%

    Demain, 25 Janvier, Vendredi

    Heure Température Précipitation Vent Pression Humidité
    00:00 +26°C° 0 mm 1 m/s 752 mmHg 97%
    01:00 +26°C° 0 mm 1 m/s 751 mmHg 98%
    02:00 +25°C° 0 mm 1 m/s 751 mmHg 98%
    03:00 +25°C° 0 mm 1 m/s 751 mmHg 98%
    04:00 +25°C° 0 mm 1 m/s 751 mmHg 98%
    05:00 +23°C° 0 mm 0 m/s 751 mmHg 99%
    06:00 +23°C° 0 mm 0 m/s 751 mmHg 96%
    07:00 +24°C° 0 mm 0 m/s 752 mmHg 93%
    08:00 +25°C° 0 mm 0 m/s 752 mmHg 89%
    09:00 +30°C° 0 mm 1 m/s 752 mmHg 76%
    10:00 +32°C° 0 mm 1 m/s 752 mmHg 63%
    11:00 +35°C° 0 mm 1 m/s 752 mmHg 50%
    12:00 +36°C° 0 mm 1 m/s 751 mmHg 46%
    13:00 +37°C° 0 mm 1 m/s 750 mmHg 42%
    14:00 +40°C° 0 mm 1 m/s 749 mmHg 38%
    15:00 +37°C° 0 mm 1 m/s 748 mmHg 47%
    16:00 +33°C° 0 mm 0 m/s 748 mmHg 55%
    17:00 +31°C° 0 mm 0 m/s 747 mmHg 64%
    18:00 +30°C° 0 mm 0 m/s 748 mmHg 68%
    19:00 +28°C° 0 mm 0 m/s 748 mmHg 72%
    20:00 +27°C° 0 mm 0 m/s 749 mmHg 75%
    21:00 +26°C° 0 mm 0 m/s 750 mmHg 77%
    22:00 +26°C° 0 mm 0 m/s 750 mmHg 79%
    23:00 +25°C° 0 mm 0 m/s 751 mmHg 81%

    Après-demain, 26 Janvier, Samedi

    Heure Température Précipitation Vent Pression Humidité
    00:00 +27°C° 0 mm 1 m/s 750 mmHg 83%
    01:00 +27°C° 0 mm 1 m/s 750 mmHg 85%
    02:00 +26°C° 0 mm 1 m/s 750 mmHg 88%
    03:00 +26°C° 0.1 mm 1 m/s 750 mmHg 89%
    04:00 +26°C° 0.1 mm 1 m/s 750 mmHg 91%
    05:00 +23°C° 0.1 mm 0 m/s 750 mmHg 93%
    06:00 +24°C° 0.4 mm 0 m/s 750 mmHg 93%
    07:00 +24°C° 0.4 mm 0 m/s 751 mmHg 93%
    08:00 +25°C° 0.4 mm 0 m/s 752 mmHg 92%
    09:00 +26°C° 1.3 mm 0 m/s 752 mmHg 91%
    10:00 +29°C° 1.3 mm 1 m/s 752 mmHg 90%
    11:00 +30°C° 1.3 mm 1 m/s 752 mmHg 89%
    12:00 +31°C° 0.4 mm 1 m/s 751 mmHg 78%
    13:00 +33°C° 0.4 mm 1 m/s 750 mmHg 66%
    14:00 +35°C° 0.4 mm 1 m/s 749 mmHg 55%
    15:00 +34°C° 0 mm 1 m/s 748 mmHg 56%
    16:00 +34°C° 0 mm 1 m/s 748 mmHg 56%
    17:00 +32°C° 0 mm 0 m/s 747 mmHg 57%
    18:00 +30°C° 0 mm 0 m/s 748 mmHg 64%
    19:00 +28°C° 0 mm 0 m/s 748 mmHg 72%
    20:00 +26°C° 0 mm 0 m/s 749 mmHg 80%
    21:00 +26°C° 0 mm 0 m/s 749 mmHg 83%
    22:00 +25°C° 0 mm 0 m/s 750 mmHg 86%
    23:00 +25°C° 0 mm 0 m/s 750 mmHg 89%

    27 Janvier, Dimanche

    Heure Température Précipitation Vent Pression Humidité
    00:00 +24°C° 0.1 mm 0 m/s 750 mmHg 92%
    01:00 +24°C° 0.1 mm 0 m/s 749 mmHg 94%
    02:00 +24°C° 0.1 mm 0 m/s 749 mmHg 96%
    03:00 +24°C° 0.2 mm 0 m/s 749 mmHg 96%
    04:00 +23°C° 0.2 mm 0 m/s 749 mmHg 96%
    05:00 +23°C° 0.2 mm 0 m/s 749 mmHg 97%
    06:00 +24°C° 0 mm 0 m/s 750 mmHg 94%
    07:00 +27°C° 0 mm 1 m/s 750 mmHg 92%
    08:00 +28°C° 0 mm 1 m/s 751 mmHg 90%
    09:00 +30°C° 0 mm 1 m/s 751 mmHg 78%
    10:00 +33°C° 0 mm 1 m/s 751 mmHg 65%
    11:00 +35°C° 0 mm 1 m/s 751 mmHg 53%
    12:00 +36°C° 0.1 mm 1 m/s 750 mmHg 51%
    13:00 +37°C° 0.1 mm 1 m/s 749 mmHg 49%
    14:00 +37°C° 0.1 mm 1 m/s 748 mmHg 48%
    15:00 +35°C° 1.4 mm 1 m/s 747 mmHg 61%
    16:00 +33°C° 1.4 mm 1 m/s 747 mmHg 75%
    17:00 +30°C° 1.4 mm 1 m/s 746 mmHg 88%
    18:00 +29°C° 0.5 mm 1 m/s 747 mmHg 90%
    19:00 +26°C° 0.5 mm 0 m/s 747 mmHg 92%
    20:00 +25°C° 0.5 mm 0 m/s 748 mmHg 93%
    21:00 +25°C° 0 mm 0 m/s 749 mmHg 94%
    22:00 +25°C° 0 mm 0 m/s 749 mmHg 94%
    23:00 +25°C° 0 mm 0 m/s 750 mmHg 95%

    28 Janvier, Lundi

    Heure Température Précipitation Vent Pression Humidité
    00:00 +27°C° 1.2 mm 1 m/s 749 mmHg 95%
    01:00 +26°C° 1.2 mm 1 m/s 749 mmHg 96%
    02:00 +26°C° 1.2 mm 1 m/s 748 mmHg 97%
    03:00 +26°C° 0.4 mm 1 m/s 748 mmHg 98%
    04:00 +26°C° 0.4 mm 1 m/s 748 mmHg 98%
    05:00 +26°C° 0.4 mm 1 m/s 748 mmHg 98%
    06:00 +26°C° 0.2 mm 1 m/s 749 mmHg 97%
    07:00 +27°C° 0.2 mm 1 m/s 750 mmHg 95%
    08:00 +27°C° 0.2 mm 1 m/s 751 mmHg 94%
    09:00 +28°C° 1.7 mm 1 m/s 751 mmHg 93%
    10:00 +29°C° 1.7 mm 1 m/s 751 mmHg 92%
    11:00 +29°C° 1.7 mm 1 m/s 750 mmHg 90%
    12:00 +30°C° 1.3 mm 1 m/s 750 mmHg 85%
    13:00 +31°C° 1.3 mm 1 m/s 749 mmHg 80%
    14:00 +31°C° 1.3 mm 1 m/s 748 mmHg 75%
    15:00 +32°C° 0.1 mm 1 m/s 748 mmHg 73%
    16:00 +32°C° 0.1 mm 1 m/s 747 mmHg 71%
    17:00 +32°C° 0.1 mm 1 m/s 747 mmHg 69%
    18:00 +30°C° 2.2 mm 1 m/s 748 mmHg 78%
    19:00 +28°C° 2.2 mm 1 m/s 748 mmHg 87%
    20:00 +27°C° 2.2 mm 1 m/s 749 mmHg 96%
    21:00 +26°C° 0.3 mm 1 m/s 750 mmHg 97%
    22:00 +26°C° 0.3 mm 1 m/s 750 mmHg 97%
    23:00 +26°C° 0.3 mm 1 m/s 751 mmHg 98%

    29 Janvier, Mardi

    Heure Température Précipitation Vent Pression Humidité
    00:00 +26°C° 0.3 mm 1 m/s 750 mmHg 98%
    01:00 +23°C° 0.3 mm 0 m/s 750 mmHg 98%
    02:00 +23°C° 0.3 mm 0 m/s 750 mmHg 98%
    03:00 +23°C° 0.4 mm 0 m/s 749 mmHg 98%
    04:00 +23°C° 0.4 mm 0 m/s 749 mmHg 98%
    05:00 +23°C° 0.4 mm 0 m/s 749 mmHg 98%
    06:00 +23°C° 0.2 mm 0 m/s 750 mmHg 98%
    07:00 +24°C° 0.2 mm 0 m/s 750 mmHg 97%
    08:00 +24°C° 0.2 mm 0 m/s 751 mmHg 97%
    09:00 +24°C° 0.7 mm 0 m/s 751 mmHg 96%
    10:00 +27°C° 0.7 mm 1 m/s 751 mmHg 95%
    11:00 +28°C° 0.7 mm 1 m/s 751 mmHg 94%
    12:00 +28°C° 0.5 mm 1 m/s 751 mmHg 93%
    13:00 +28°C° 0.5 mm 1 m/s 750 mmHg 92%
    14:00 +28°C° 0.5 mm 1 m/s 749 mmHg 91%
    15:00 +28°C° 0.2 mm 1 m/s 749 mmHg 89%
    16:00 +29°C° 0.2 mm 1 m/s 749 mmHg 87%
    17:00 +29°C° 0.2 mm 1 m/s 748 mmHg 86%
    18:00 +28°C° 0.1 mm 1 m/s 749 mmHg 89%
    19:00 +27°C° 0.1 mm 1 m/s 749 mmHg 93%
    20:00 +26°C° 0.1 mm 1 m/s 750 mmHg 97%
    21:00 +26°C° 0.1 mm 1 m/s 750 mmHg 97%
    22:00 +26°C° 0.1 mm 1 m/s 751 mmHg 97%
    23:00 +25°C° 0.1 mm 1 m/s 751 mmHg 97%
    Voir plus